Location: Newark
(22.3060°N, 114.2134°E)
Time: 02:12:12
(UTC+00:00)

Vanguard 2 - Pass Details

Date: 04 August 2021
Orbit: 553 x 2937 km, 32.9° (Epoch: 27 September)

Event Time Altitude Azimuth Distance (km) Brightness Sun altitude
Rises 21:20:00 0° 293° (WNW) 2,711 - -8.8°
Exits shadow 21:20:22 - 295° (WNW) 2,575 9.8 -8.7°
Reaches altitude 10° 21:22:33 10° 311° (NW) 1,845 9.2 -8.2°
Maximum altitude 21:25:41 21° 3° (N) 1,383 9.2 -7.5°
Drops below altitude 10° 21:29:23 10° 53° (NE) 2,213 11.4 -6.7°
Sets 21:32:49 0° 69° (ENE) 3,449 13.8 -6.0°
